When you browse on this site, cookies collect data to enhance your experience and personalize the content and advertising you see.
Visit our Privacy Policy to learn more. By continuing to use the site, you agree to this use of cookies and data.
  • In Österreich
  • Länderverzeichnis
  • Für 7 Tage
  • Wassertemperatur
  • Wetterkarte
  • News
  • Widgets
  • user-avatar
    Anmelden

    Stündliche Wetter Calnalí

    Heute, 18 Januar, Samstag

    Zeit Temperatur Niederschläge Wind Luftdruck Luftfeuchtigkeit
    00:00 +14°C° 0 mm 0 m/S 657 mmHg 95%
    01:00 +14°C° 0 mm 0 m/S 656 mmHg 96%
    02:00 +14°C° 0 mm 0 m/S 656 mmHg 96%
    03:00 +14°C° 0 mm 0 m/S 656 mmHg 95%
    04:00 +14°C° 0 mm 0 m/S 656 mmHg 95%
    05:00 +14°C° 0 mm 0 m/S 656 mmHg 95%
    06:00 +14°C° 0 mm 0 m/S 657 mmHg 92%
    07:00 +15°C° 0 mm 0 m/S 657 mmHg 90%
    08:00 +16°C° 0 mm 0 m/S 658 mmHg 88%
    09:00 +17°C° 0.1 mm 0 m/S 658 mmHg 84%
    10:00 +20°C° 0.1 mm 1 m/S 658 mmHg 80%
    11:00 +20°C° 0.1 mm 2 m/S 658 mmHg 76%
    12:00 +20°C° 0.1 mm 2 m/S 658 mmHg 75%
    13:00 +20°C° 0.1 mm 2 m/S 657 mmHg 74%
    14:00 +21°C° 0.1 mm 2 m/S 656 mmHg 74%
    15:00 +19°C° 0.2 mm 2 m/S 656 mmHg 79%
    16:00 +19°C° 0.2 mm 1 m/S 656 mmHg 85%
    17:00 +18°C° 0.2 mm 1 m/S 656 mmHg 91%
    18:00 +18°C° 0.2 mm 1 m/S 657 mmHg 92%
    19:00 +16°C° 0.2 mm 1 m/S 657 mmHg 94%
    20:00 +15°C° 0.2 mm 0 m/S 657 mmHg 95%
    21:00 +14°C° 0.3 mm 0 m/S 657 mmHg 95%
    22:00 +15°C° 0.3 mm 1 m/S 657 mmHg 95%
    23:00 +15°C° 0.3 mm 1 m/S 657 mmHg 95%

    Morgen, 19 Januar, Sonntag

    Zeit Temperatur Niederschläge Wind Luftdruck Luftfeuchtigkeit
    00:00 +15°C° 0.9 mm 1 m/S 657 mmHg 95%
    01:00 +15°C° 0.9 mm 1 m/S 657 mmHg 96%
    02:00 +15°C° 0.9 mm 1 m/S 657 mmHg 96%
    03:00 +15°C° 2.7 mm 1 m/S 657 mmHg 97%
    04:00 +15°C° 2.7 mm 1 m/S 657 mmHg 98%
    05:00 +15°C° 2.7 mm 1 m/S 657 mmHg 98%
    06:00 +14°C° 2.9 mm 1 m/S 658 mmHg 98%
    07:00 +14°C° 2.9 mm 1 m/S 658 mmHg 98%
    08:00 +14°C° 2.9 mm 1 m/S 659 mmHg 98%
    09:00 +14°C° 1.6 mm 1 m/S 659 mmHg 98%
    10:00 +14°C° 1.6 mm 1 m/S 659 mmHg 98%
    11:00 +13°C° 1.6 mm 1 m/S 659 mmHg 98%
    12:00 +13°C° 1 mm 1 m/S 658 mmHg 98%
    13:00 +13°C° 1 mm 1 m/S 658 mmHg 98%
    14:00 +12°C° 1 mm 1 m/S 658 mmHg 97%
    15:00 +12°C° 0.8 mm 1 m/S 658 mmHg 97%
    16:00 +12°C° 0.8 mm 1 m/S 658 mmHg 97%
    17:00 +12°C° 0.8 mm 1 m/S 658 mmHg 97%
    18:00 +12°C° 0.4 mm 1 m/S 659 mmHg 97%
    19:00 +12°C° 0.4 mm 1 m/S 659 mmHg 98%
    20:00 +12°C° 0.4 mm 1 m/S 660 mmHg 98%
    21:00 +12°C° 0.2 mm 1 m/S 660 mmHg 97%
    22:00 +11°C° 0.2 mm 1 m/S 660 mmHg 97%
    23:00 +11°C° 0.2 mm 1 m/S 660 mmHg 97%

    übermorgen, 20 Januar, Montag

    Zeit Temperatur Niederschläge Wind Luftdruck Luftfeuchtigkeit
    00:00 +11°C° 0.1 mm 1 m/S 659 mmHg 97%
    01:00 +11°C° 0.1 mm 1 m/S 659 mmHg 97%
    02:00 +11°C° 0.1 mm 1 m/S 658 mmHg 97%
    03:00 +11°C° 0.1 mm 1 m/S 658 mmHg 96%
    04:00 +11°C° 0.1 mm 1 m/S 658 mmHg 96%
    05:00 +11°C° 0.1 mm 1 m/S 658 mmHg 96%
    06:00 +11°C° 0.2 mm 1 m/S 659 mmHg 96%
    07:00 +11°C° 0.2 mm 1 m/S 660 mmHg 96%
    08:00 +10°C° 0.2 mm 1 m/S 660 mmHg 96%
    09:00 +11°C° 0.2 mm 1 m/S 660 mmHg 96%
    10:00 +11°C° 0.2 mm 1 m/S 660 mmHg 96%
    11:00 +11°C° 0.2 mm 1 m/S 660 mmHg 95%
    12:00 +11°C° 0.1 mm 1 m/S 659 mmHg 95%
    13:00 +11°C° 0.1 mm 1 m/S 659 mmHg 95%
    14:00 +11°C° 0.1 mm 1 m/S 658 mmHg 94%
    15:00 +11°C° 0.1 mm 1 m/S 658 mmHg 95%
    16:00 +11°C° 0.1 mm 1 m/S 658 mmHg 96%
    17:00 +10°C° 0.1 mm 1 m/S 658 mmHg 97%
    18:00 +9°C° 0.2 mm 0 m/S 658 mmHg 97%
    19:00 +9°C° 0.2 mm 0 m/S 659 mmHg 97%
    20:00 +9°C° 0.2 mm 0 m/S 659 mmHg 97%
    21:00 +9°C° 0.3 mm 0 m/S 659 mmHg 97%
    22:00 +9°C° 0.3 mm 0 m/S 659 mmHg 97%
    23:00 +9°C° 0.3 mm 0 m/S 659 mmHg 98%

    21 Januar, Dienstag

    Zeit Temperatur Niederschläge Wind Luftdruck Luftfeuchtigkeit
    00:00 +9°C° 0.2 mm 0 m/S 659 mmHg 98%
    01:00 +10°C° 0.2 mm 0 m/S 658 mmHg 97%
    02:00 +10°C° 0.2 mm 0 m/S 658 mmHg 97%
    03:00 +10°C° 0 mm 0 m/S 658 mmHg 97%
    04:00 +10°C° 0 mm 0 m/S 657 mmHg 97%
    05:00 +10°C° 0 mm 0 m/S 657 mmHg 97%
    06:00 +10°C° 0 mm 0 m/S 657 mmHg 97%
    07:00 +10°C° 0 mm 0 m/S 658 mmHg 96%
    08:00 +11°C° 0 mm 0 m/S 658 mmHg 95%
    09:00 +12°C° 0 mm 1 m/S 658 mmHg 94%
    10:00 +12°C° 0 mm 1 m/S 658 mmHg 94%
    11:00 +12°C° 0 mm 1 m/S 657 mmHg 93%
    12:00 +12°C° 0 mm 1 m/S 656 mmHg 93%
    13:00 +12°C° 0 mm 1 m/S 656 mmHg 93%
    14:00 +12°C° 0 mm 1 m/S 655 mmHg 93%
    15:00 +12°C° 0 mm 1 m/S 654 mmHg 94%
    16:00 +12°C° 0 mm 1 m/S 654 mmHg 96%
    17:00 +12°C° 0 mm 1 m/S 654 mmHg 97%
    18:00 +12°C° 0 mm 1 m/S 654 mmHg 97%
    19:00 +11°C° 0 mm 0 m/S 655 mmHg 97%
    20:00 +11°C° 0 mm 0 m/S 655 mmHg 97%
    21:00 +11°C° 0 mm 0 m/S 655 mmHg 97%
    22:00 +11°C° 0 mm 0 m/S 655 mmHg 96%
    23:00 +11°C° 0 mm 0 m/S 655 mmHg 96%

    22 Januar, Mittwoch

    Zeit Temperatur Niederschläge Wind Luftdruck Luftfeuchtigkeit
    00:00 +11°C° 0 mm 0 m/S 654 mmHg 96%
    01:00 +10°C° 0 mm 0 m/S 654 mmHg 96%
    02:00 +10°C° 0 mm 0 m/S 653 mmHg 96%
    03:00 +10°C° 0 mm 0 m/S 653 mmHg 96%
    04:00 +10°C° 0 mm 0 m/S 653 mmHg 95%
    05:00 +10°C° 0 mm 0 m/S 653 mmHg 95%
    06:00 +11°C° 0 mm 0 m/S 653 mmHg 90%
    07:00 +13°C° 0 mm 0 m/S 654 mmHg 86%
    08:00 +14°C° 0 mm 0 m/S 655 mmHg 81%
    09:00 +16°C° 0 mm 1 m/S 655 mmHg 78%
    10:00 +18°C° 0 mm 1 m/S 655 mmHg 74%
    11:00 +19°C° 0 mm 2 m/S 655 mmHg 71%
    12:00 +18°C° 0.1 mm 2 m/S 654 mmHg 74%
    13:00 +18°C° 0.1 mm 2 m/S 653 mmHg 78%
    14:00 +18°C° 0.1 mm 2 m/S 652 mmHg 82%
    15:00 +18°C° 0 mm 1 m/S 652 mmHg 85%
    16:00 +16°C° 0 mm 1 m/S 651 mmHg 89%
    17:00 +14°C° 0 mm 0 m/S 651 mmHg 93%
    18:00 +14°C° 0 mm 0 m/S 652 mmHg 94%
    19:00 +14°C° 0 mm 0 m/S 652 mmHg 95%
    20:00 +13°C° 0 mm 0 m/S 652 mmHg 96%
    21:00 +13°C° 0 mm 0 m/S 652 mmHg 96%
    22:00 +13°C° 0 mm 0 m/S 652 mmHg 95%
    23:00 +13°C° 0 mm 0 m/S 653 mmHg 95%

    23 Januar, Donnerstag

    Zeit Temperatur Niederschläge Wind Luftdruck Luftfeuchtigkeit
    00:00 +13°C° 0 mm 0 m/S 652 mmHg 95%
    01:00 +14°C° 0 mm 1 m/S 652 mmHg 94%
    02:00 +14°C° 0 mm 1 m/S 651 mmHg 94%
    03:00 +14°C° 0 mm 1 m/S 651 mmHg 90%
    04:00 +15°C° 0 mm 1 m/S 651 mmHg 87%
    05:00 +15°C° 0 mm 1 m/S 651 mmHg 83%
    06:00 +16°C° 0 mm 1 m/S 652 mmHg 80%
    07:00 +16°C° 0 mm 1 m/S 652 mmHg 77%
    08:00 +16°C° 0 mm 0 m/S 653 mmHg 74%
    09:00 +20°C° 0 mm 1 m/S 653 mmHg 68%
    10:00 +22°C° 0 mm 1 m/S 653 mmHg 62%
    11:00 +23°C° 0 mm 1 m/S 653 mmHg 56%
    12:00 +23°C° 0 mm 2 m/S 653 mmHg 57%
    13:00 +24°C° 0 mm 2 m/S 652 mmHg 59%
    14:00 +24°C° 0 mm 2 m/S 651 mmHg 60%
    15:00 +21°C° 0.1 mm 2 m/S 651 mmHg 69%
    16:00 +20°C° 0.1 mm 1 m/S 651 mmHg 78%
    17:00 +19°C° 0.1 mm 1 m/S 650 mmHg 87%
    18:00 +18°C° 0 mm 1 m/S 651 mmHg 87%
    19:00 +16°C° 0 mm 1 m/S 651 mmHg 86%
    20:00 +15°C° 0 mm 2 m/S 651 mmHg 86%
    21:00 +15°C° 0 mm 1 m/S 651 mmHg 83%
    22:00 +15°C° 0 mm 1 m/S 652 mmHg 81%
    23:00 +14°C° 0 mm 1 m/S 652 mmHg 78%
    Mehr zeigen